[[[{"header":{"parameterUnit":"kt","parameterCategory":2,"dx":1,"dy":1,"la1":30.253999710083008,"la2":30.299108505249023,"lo1":-89.0895004272461,"lo2":-89.04439544677734,"nx":28,"ny":28,"refTime":"2022-10-08T21:00:00:Z","depth":0,"parameterNumber":1,"parameterNumberName":"U-component_of_WINDS"},"data":[-5.381,-5.3882,-5.3834,-5.3895,-5.3862,-5.3896,-5.3893,-5.3885,-5.3866,-5.3902,-5.3915,-5.3875,-5.3838,-5.3843,-5.3856,-5.3838,-5.3849,-5.391,-5.3879,-5.3643,-5.3608,-5.3574,-5.3553,-5.3912,-5.3913,-5.4131,-5.4133,-5.4135,-5.3648,-5.3615,-5.3632,-5.3616,-5.3631,-5.3543,-5.3523,-5.3542,-5.3576,-5.3552,-5.3561,-5.3589,-5.3606,-5.3546,-5.3554,-5.359,-5.355,-5.3596,-5.3594,-5.359,-5.3336,-5.3315,-5.3629,-5.3628,-5.3628,-5.3628,-5.3628,-5.3628,-5.3339,-5.3383,-5.3344,-5.3361,-5.3339,-5.3329,-5.3364,-5.3311,-5.3328,-5.3328,-5.3266,-5.3303,-5.3271,-5.3255,-5.3238,-5.3267,-5.3207,-5.3243,-5.3252,-5.3264,-5.3284,-5.2983,-5.3265,-5.3264,-5.3263,-5.3262,-5.3262,0,-5.3098,-5.3054,-5.3065,-5.3063,-5.3072,-5.3066,-5.3052,-5.3072,-5.296,-5.2979,-5.3002,-5.3007,-5.3018,-5.3035,-5.3031,-5.3004,-5.2916,-5.29,-5.2925,-5.2958,-5.299,-5.2978,-5.2569,-5.2893,-5.2889,-5.2887,-5.2885,-5.2884,-5.2786,-5.2841,-5.2774,-5.279,-5.2768,-5.2794,-5.2799,-5.2696,-5.2706,-5.2674,-5.2719,-5.2733,-5.274,-5.2786,-5.2724,-5.2732,-5.269,-5.282,-5.2691,-5.272,-5.2696,-5.2695,-5.2702,-5.2848,-5.2853,-5.2856,-5.2859,0,-5.2616,-5.2532,-5.2602,-5.2529,-5.2512,-5.2577,-5.2515,-5.2555,-5.2498,-5.2546,-5.2551,-5.2462,-5.2487,-5.2402,-5.2413,-5.2368,-5.2481,-5.2436,-5.2492,-5.248,-5.2591,-5.2583,-5.2955,-5.3,-5.2623,-5.2627,-5.263,0,-5.2318,-5.2395,-5.2266,-5.231,-5.2393,-5.2285,-5.2371,-5.2329,-5.2296,-5.2332,-5.2215,-5.2252,-5.2136,-5.2162,-5.2097,-5.2172,-5.2172,-5.2144,-5.2127,-5.2157,-5.2161,-5.2164,-5.2148,-5.2079,-5.2077,-5.2076,-5.2074,0,-5.2063,-5.2081,-5.2152,-5.2143,-5.2072,-5.2109,-5.2081,-5.2041,-5.2047,-5.2041,-5.2044,-5.2045,-5.2046,-5.205,-5.1966,-5.1882,-5.2054,-5.1921,-5.2026,-5.2029,-5.207,-5.207,-5.2418,-5.2072,-5.2071,-5.2071,-5.207,0,-5.1809,-5.1802,-5.1917,-5.1855,-5.1864,-5.1911,-5.1903,-5.1923,-5.189,-5.185,-5.1844,-5.1756,-5.1811,-5.1686,-5.1762,-5.1677,-5.1686,-5.1662,-5.1668,-5.1671,-5.1534,-5.1746,-5.2084,-5.2118,-5.1671,-5.1668,-5.1665,0,-5.1543,-5.1634,-5.154,-5.1652,-5.1683,-5.1548,-5.1598,-5.1571,-5.1521,-5.1541,-5.1486,-5.1511,-5.1399,-5.1394,-5.1443,-5.1389,-5.1499,-5.137,-5.1407,-5.141,-5.1424,-5.1732,-5.1805,-5.2018,-5.1621,-5.1625,-5.1629,0,-5.1325,-5.1233,-5.1259,-5.1244,-5.1187,-5.1211,-5.1269,-5.1266,-5.1286,-5.1265,-5.1313,-5.1342,-5.126,-5.1253,-5.118,-5.1236,-5.1421,-5.114,-5.1137,-5.1197,-5.1589,-5.1659,-5.1695,-5.1361,-5.1366,-5.137,-5.1594,0,-5.0968,-5.1,-5.1066,-5.1034,-5.1038,-5.1101,-5.1005,-5.1023,-5.0951,-5.0897,-5.0963,-5.0916,-5.0915,-5.093,-5.0861,-5.1013,-5.0974,-5.0886,-5.076,-5.0961,-5.1033,-5.1062,-5.0661,-5.0656,-5.0653,-5.065,0,0,-5.0736,-5.0779,-5.0672,-5.0721,-5.0718,-5.0575,-5.0651,-5.0631,-5.0596,-5.0598,-5.0526,-5.0561,-5.0526,-5.0617,-5.0672,-5.067,-5.069,-5.0622,-5.0865,-5.089,-5.0912,-5.099,-5.1022,-5.0643,-5.0642,-5.0641,-5.064,0,-5.0586,-5.0548,-5.0622,-5.0596,-5.0554,-5.049,-5.0509,-5.0441,-5.0409,-5.047,-5.0353,-5.0381,-5.041,-5.039,-5.0384,-5.0608,-5.052,-5.0615,-5.0768,-5.0832,-5.0861,-5.0887,-5.097,-5.1001,-5.0631,-5.0631,-5.0632,0,-5.0356,-5.0305,-5.0329,-5.0311,-5.0282,-5.0315,-5.0158,-5.0199,-5.0223,-5.0065,-5.0128,-5.009,-5.0053,-5.0149,-5.0188,-5.0124,-5.037,-5.0274,-5.0294,-5.0297,-5.0354,-5.0389,-5.0421,-5.0008,-5.0006,-5.0005,0,0,-5.024,-5.0267,-5.0178,-5.0271,-5.0261,-5.0167,-5.0174,-5.0102,-5.007,-5.0058,-5.0006,-4.9981,-4.9996,-5.001,-5.0019,-5.0137,-5.0123,-5.0201,-5.023,-5.0254,-5.0271,-5.0335,-5.0369,-4.9998,-4.9998,-4.9998,0,0,-5.0184,-5.0084,-5.0016,-5.0111,-5.0085,-5.0004,-5.0066,-4.9981,-4.9979,-4.9961,-4.9844,-4.9832,-4.9919,-4.9885,-4.9806,-4.9973,-4.9849,-4.9866,-4.9992,-5.0028,-5.0056,-5.0064,-4.964,0,0,0,0,0,-4.998,-5.0096,-5.0036,-5.0037,-5.0012,-5.0038,-5.0034,-4.9938,-4.9853,-4.9905,-4.9848,-4.975,-4.9819,-4.9746,-4.9751,-4.984,-4.9911,-4.9927,-4.9941,-5.013,-5.0169,-5.0201,0,0,0,0,0,0,-4.9979,-4.9981,-5.0032,-4.9958,-4.9951,-5.0032,-4.9868,-4.9845,-4.9845,-4.9826,-4.9764,-4.9748,-4.9668,-4.9738,-4.9743,-4.983,-4.9638,-4.9917,-4.993,-4.9942,-5.0144,-5.0175,-5.0202,0,0,0,0,0,-4.9979,-4.998,-4.9966,-4.9956,-4.995,-4.9851,-4.9862,-4.9842,-4.9841,-4.9751,-4.9732,-4.9768,-4.9673,-4.967,-4.974,-4.983,-4.9634,-4.9636,-4.9926,-4.9936,-4.9945,-5.0159,0,0,0,0,0,0,-4.9978,-4.9962,-4.9962,-4.9957,-4.9903,-4.9844,-4.9831,-4.984,-4.9764,-4.9747,-4.9749,-4.9735,-4.9678,-4.9675,-4.9674,-4.9836,-4.963,-4.9633,-4.9634,-4.9934,-4.9942,-4.9949,0,0,0,0,0,0,-4.9961,-4.9959,-4.996,-4.9899,-4.9886,-4.9839,-4.9827,-4.9872,-4.9765,-4.9766,-4.9752,-4.9744,-4.968,-4.9679,-4.9678,-4.9751,-4.9628,-4.963,-4.9631,-4.9632,-4.994,-4.9947,0,0,0,0,0,0,-4.9958,-4.9956,-4.99,-4.989,-4.9878,-4.9813,-4.9876,-4.9857,-4.9712,-4.9772,-4.9696,-4.9689,-4.9687,-4.9683,-4.9681,-4.9756,-4.9752,-4.9628,-4.9629,-4.963,-4.9631,0,0,0,0,0,0,0,-4.9956,-4.999,-4.9993,-4.9882,-4.9871,-4.9909,-4.9908,-4.9906,-4.971,-4.9704,-4.9698,-4.9692,-4.9615,-4.9617,-4.962,-4.976,0,0,-4.9627,-4.9628,0,0,0,0,0,0,0,0,-4.9988,-4.9989,-4.9993,-4.9992,-4.9991,-4.9909,-4.9908,-4.9907,-4.9709,-4.9704,-4.9699,-4.9695,-4.9615,-4.9617,-4.9619,0,0,0,0,0,0,0,0,0,0,0,0,0,0,0,-4.9993,-4.9992,0,-4.9909,-4.9908,-4.9907,-4.9709,-4.9705,-4.97,-4.9697,-4.9616,-4.9617,-4.9619,0,0,0,0,0,0,0,0,0,0,0,0,0,0,0,0,0,0,0,0,0,0,0,0,0,0,0,0,0,0,0,0,0,0,0,0,0,0,0,0,0,0,0,0,0,0,0,0,0,0,0,0,0,0,0,0,0,0,0,0,0,0,0,0,0,0,0,0,0]}],[{"header":{"parameterUnit":"kt","parameterCategory":2,"dx":1,"dy":1,"la1":30.253999710083008,"la2":30.299108505249023,"lo1":-89.0895004272461,"lo2":-89.04439544677734,"nx":28,"ny":28,"refTime":"2022-10-08T21:00:00:Z","depth":0,"parameterNumber":2,"parameterNumberName":"V-component_of_WINDS"},"data":[-10.4662,-10.4812,-10.4815,-10.4985,-10.5016,-10.5132,-10.5173,-10.5226,-10.5268,-10.5403,-10.548,-10.5494,-10.5533,-10.5622,-10.5703,-10.5707,-10.5741,-10.5794,-10.5789,-10.5554,-10.5521,-10.549,-10.5457,-10.5802,-10.5802,-10.6033,-10.6035,-10.6037,-10.4493,-10.4526,-10.4617,-10.4706,-10.4783,-10.4734,-10.4799,-10.4866,-10.4969,-10.5021,-10.5097,-10.5214,-10.5305,-10.5325,-10.5412,-10.5479,-10.5459,-10.5502,-10.5497,-10.5504,-10.5253,-10.5217,-10.5517,-10.5517,-10.5517,-10.5517,-10.5517,-10.5517,-10.4185,-10.4275,-10.433,-10.4428,-10.4472,-10.4531,-10.4615,-10.4631,-10.4717,-10.481,-10.4792,-10.4907,-10.4956,-10.5058,-10.5091,-10.5179,-10.5129,-10.5176,-10.5187,-10.52,-10.5215,-10.4885,-10.5192,-10.5192,-10.5191,-10.519,-10.5189,0,-10.396,-10.3956,-10.4043,-10.4131,-10.4201,-10.4268,-10.4328,-10.438,-10.4365,-10.4436,-10.4538,-10.4596,-10.471,-10.4803,-10.4883,-10.4907,-10.4859,-10.4853,-10.4885,-10.4897,-10.4899,-10.4901,-10.4493,-10.4843,-10.484,-10.4838,-10.4837,-10.4835,-10.3651,-10.3754,-10.3811,-10.3871,-10.3905,-10.4001,-10.4059,-10.4038,-10.4099,-10.4168,-10.4245,-10.4339,-10.4413,-10.4573,-10.4585,-10.4668,-10.4645,-10.4779,-10.4656,-10.4665,-10.4648,-10.4643,-10.4653,-10.4804,-10.4808,-10.4811,-10.4814,0,-10.3477,-10.3478,-10.3637,-10.3681,-10.3695,-10.3803,-10.3839,-10.3925,-10.3929,-10.4047,-10.4073,-10.4079,-10.4177,-10.4167,-10.4275,-10.4267,-10.4441,-10.4416,-10.4425,-10.442,-10.4541,-10.453,-10.493,-10.4982,-10.4623,-10.4626,-10.4629,0,-10.3213,-10.3348,-10.3341,-10.3433,-10.3582,-10.3558,-10.3705,-10.3723,-10.3765,-10.3858,-10.3803,-10.389,-10.3863,-10.3948,-10.3936,-10.4076,-10.4096,-10.4097,-10.4093,-10.4103,-10.4103,-10.4134,-10.4117,-10.4076,-10.4074,-10.4072,-10.407,0,-10.2941,-10.3094,-10.3244,-10.3278,-10.3337,-10.3407,-10.3434,-10.348,-10.3535,-10.3604,-10.3639,-10.3719,-10.3764,-10.3826,-10.381,-10.3727,-10.398,-10.3863,-10.3982,-10.3983,-10.4039,-10.4036,-10.4393,-10.4068,-10.4067,-10.4066,-10.4066,0,-10.2728,-10.2802,-10.3018,-10.3066,-10.3106,-10.3203,-10.3283,-10.3364,-10.3416,-10.3415,-10.3468,-10.3429,-10.355,-10.3435,-10.3601,-10.3499,-10.3545,-10.3557,-10.3565,-10.3576,-10.3447,-10.3652,-10.3992,-10.4028,-10.3586,-10.3582,-10.3578,0,-10.2417,-10.2635,-10.2616,-10.2821,-10.292,-10.2853,-10.2959,-10.3007,-10.3015,-10.3097,-10.3103,-10.3197,-10.3109,-10.3136,-10.322,-10.3229,-10.3363,-10.3211,-10.3328,-10.3333,-10.3319,-10.3632,-10.3686,-10.3919,-10.3527,-10.3532,-10.3536,0,-10.2176,-10.2248,-10.2285,-10.2324,-10.2384,-10.2465,-10.2588,-10.2676,-10.2733,-10.279,-10.2892,-10.3021,-10.2961,-10.3006,-10.2981,-10.3069,-10.3271,-10.2991,-10.2992,-10.3043,-10.3499,-10.355,-10.359,-10.3235,-10.3242,-10.3247,-10.3495,0,-10.1856,-10.1964,-10.2066,-10.2151,-10.2212,-10.2338,-10.233,-10.2394,-10.2366,-10.2371,-10.2518,-10.2551,-10.2638,-10.2678,-10.265,-10.2854,-10.2818,-10.2751,-10.2637,-10.2843,-10.2924,-10.2957,-10.2517,-10.2514,-10.2511,-10.2508,0,0,-10.1559,-10.1713,-10.1687,-10.1806,-10.1856,-10.1784,-10.192,-10.1959,-10.2039,-10.2075,-10.2012,-10.22,-10.2228,-10.2408,-10.2471,-10.2505,-10.254,-10.2468,-10.2745,-10.2771,-10.2796,-10.2883,-10.2918,-10.2503,-10.2502,-10.2501,-10.25,0,-10.1441,-10.1478,-10.1613,-10.1654,-10.1713,-10.1711,-10.1744,-10.1787,-10.1796,-10.194,-10.1875,-10.1961,-10.2111,-10.2151,-10.2191,-10.2447,-10.2392,-10.2473,-10.2616,-10.2716,-10.2746,-10.2773,-10.2865,-10.2899,-10.2493,-10.2494,-10.2494,0,-10.1203,-10.1237,-10.1302,-10.1412,-10.1449,-10.1551,-10.1431,-10.1543,-10.1617,-10.1527,-10.1671,-10.1687,-10.1739,-10.1909,-10.1984,-10.1929,-10.2258,-10.2151,-10.2168,-10.2176,-10.2272,-10.2309,-10.2341,-10.1914,-10.1912,-10.191,0,0,-10.1101,-10.1201,-10.1229,-10.1386,-10.1414,-10.1413,-10.1465,-10.1442,-10.1492,-10.1512,-10.1532,-10.158,-10.1666,-10.1724,-10.1804,-10.1992,-10.2,-10.208,-10.2107,-10.213,-10.215,-10.2252,-10.2288,-10.1903,-10.1903,-10.1903,0,0,-10.1052,-10.1092,-10.1056,-10.1237,-10.1288,-10.1324,-10.1419,-10.1374,-10.1445,-10.1429,-10.1392,-10.1404,-10.1562,-10.158,-10.1483,-10.1763,-10.1651,-10.1674,-10.1746,-10.178,-10.1807,-10.1799,-10.1362,0,0,0,0,0,-10.0926,-10.1087,-10.1054,-10.1083,-10.122,-10.1343,-10.136,-10.1335,-10.1257,-10.1333,-10.1343,-10.128,-10.152,-10.1434,-10.1461,-10.1569,-10.1808,-10.1825,-10.1841,-10.1978,-10.2014,-10.2044,0,0,0,0,0,0,-10.0937,-10.0973,-10.105,-10.1093,-10.1123,-10.1337,-10.12,-10.1197,-10.1249,-10.1235,-10.128,-10.1281,-10.1261,-10.1417,-10.1443,-10.1546,-10.1353,-10.1815,-10.1829,-10.1842,-10.199,-10.202,-10.2045,0,0,0,0,0,-10.0946,-10.0974,-10.1201,-10.109,-10.1117,-10.1123,-10.1193,-10.119,-10.1229,-10.1243,-10.1242,-10.1206,-10.1264,-10.1284,-10.1432,-10.1535,-10.1335,-10.1345,-10.1824,-10.1835,-10.1845,-10.2005,0,0,0,0,0,0,-10.0952,-10.0971,-10.1206,-10.1213,-10.1028,-10.111,-10.1123,-10.1184,-10.1233,-10.1234,-10.1166,-10.1155,-10.1269,-10.1283,-10.1298,-10.1533,-10.1321,-10.1331,-10.1337,-10.1833,-10.1841,-10.1849,0,0,0,0,0,0,-10.0956,-10.0978,-10.1209,-10.1132,-10.113,-10.1099,-10.111,-10.1231,-10.1235,-10.1153,-10.1145,-10.1161,-10.1244,-10.1284,-10.1295,-10.1485,-10.131,-10.1319,-10.1326,-10.133,-10.184,-10.1847,0,0,0,0,0,0,-10.0964,-10.0984,-10.113,-10.1128,-10.1126,-10.1203,-10.1205,-10.1346,-10.1172,-10.1152,-10.1155,-10.1147,-10.1247,-10.1258,-10.1293,-10.1479,-10.1484,-10.131,-10.1317,-10.1321,-10.1324,0,0,0,0,0,0,0,-10.0972,-10.0851,-10.1165,-10.1125,-10.1123,-10.1278,-10.128,-10.1282,-10.117,-10.1163,-10.1157,-10.1151,-10.1257,-10.1267,-10.1277,-10.1474,0,0,-10.1309,-10.1314,0,0,0,0,0,0,0,0,-10.0842,-10.0849,-10.1165,-10.1166,-10.1168,-10.1278,-10.128,-10.1281,-10.1169,-10.1163,-10.1158,-10.1153,-10.126,-10.1268,-10.1276,0,0,0,0,0,0,0,0,0,0,0,0,0,0,0,-10.1165,-10.1166,0,-10.1279,-10.128,-10.1281,-10.1168,-10.1164,-10.1159,-10.1155,-10.1262,-10.1269,-10.1276,0,0,0,0,0,0,0,0,0,0,0,0,0,0,0,0,0,0,0,0,0,0,0,0,0,0,0,0,0,0,0,0,0,0,0,0,0,0,0,0,0,0,0,0,0,0,0,0,0,0,0,0,0,0,0,0,0,0,0,0,0,0,0,0,0,0,0,0,0]}]]]